Tracking 19637 objects as of 18-Apr-2019
HD Live streaming from Space Station
objects crossing your sky now

THORAD DELTA 1 DEB

Track THORAD DELTA 1 DEB now!
10-day predictions


NORAD ID: 8394
Int'l Code: 1974-089BW
Perigee: 1,460.0 km
Apogee: 1,737.2 km
Inclination: 102.4 °
Period: 118.0 minutes
Semi major axis: 7969 km
RCS: 0.0669 m2 (small)
Launch date: November 15, 1974
Source: United States (US)
Launch site: AIR FORCE WESTERN TEST RANGE (AFWTR)

Note: This is SATELLITE DEBRIS
aabbcc
Your satellite tracking list
Your tracking list is empty




NASA's NSSDC Master Catalog

Two Line Element Set (TLE):
1  8394U 74089BW  19106.63897666 -.00000018 +00000-0 +24920-3 0  9990
2  8394 102.4094 169.8518 0173880 267.8927 264.7307 12.20243622620283
Source of the keplerian elements: AFSPC